This is the latest recevied weather packets stored in our database for station/object K7LDN-13. If no packets are shown the sender has not sent any weather packets the latest 10 day(s).
| Time | Temp. | Humidity | Pressure | Rain* | Wind** | Luminosity | Snow |
|---|---|---|---|---|---|---|---|
| 1777580569 | 16.11° C | 29% | 1020.5 hPa | 0 mm | - | 861 W/m² | - |
| 1777580265 | 15.56° C | 28% | 1020.9 hPa | 0 mm | - | 855 W/m² | - |
| 1777579963 | 16.11° C | 30% | 1020.5 hPa | 0 mm | - | 848 W/m² | - |
| 1777579657 | 15.56° C | 33% | 1020.4 hPa | 0 mm | - | 867 W/m² | - |
| 1777579356 | 15.56° C | 30% | 1020.8 hPa | 0 mm | - | 858 W/m² | - |
| 1777579052 | 16.11° C | 33% | 1020.5 hPa | 0 mm | - | 860 W/m² | - |
| 1777578747 | 16.11° C | 29% | 1020.5 hPa | 0 mm | - | 871 W/m² | - |
| 1777578447 | 15.56° C | 30% | 1020.9 hPa | 0 mm | - | 872 W/m² | - |
| 1777578143 | 16.11° C | 32% | 1020.6 hPa | 0 mm | - | 873 W/m² | - |
| 1777577839 | 15.56° C | 32% | 1020.8 hPa | 0 mm | - | 868 W/m² | - |
| 1777577534 | 16.11° C | 31% | 1020.8 hPa | 0 mm | - | 867 W/m² | - |
| 1777577232 | 15.56° C | 30% | 1020.9 hPa | 0 mm | - | 871 W/m² | - |
| 1777576928 | 15.56° C | 29% | 1021 hPa | 0 mm | - | 876 W/m² | - |
| 1777576623 | 15.56° C | 32% | 1021 hPa | 0 mm | - | 881 W/m² | - |
| 1777576318 | 15.56° C | 31% | 1020.9 hPa | 0 mm | - | 866 W/m² | - |
| 1777576015 | 15.56° C | 28% | 1021 hPa | 0 mm | - | 864 W/m² | - |
| 1777575711 | 15° C | 30% | 1021.3 hPa | 0 mm | - | 865 W/m² | - |
| 1777575407 | 15.56° C | 32% | 1021 hPa | 0 mm | - | 862 W/m² | - |
| 1777575103 | 15.56° C | 29% | 1021.2 hPa | 0 mm | - | 860 W/m² | - |
| 1777574799 | 15.56° C | 33% | 1021.3 hPa | 0 mm | - | 857 W/m² | - |
| 1777574497 | 15° C | 33% | 1021.2 hPa | 0 mm | - | 852 W/m² | - |
| 1777574193 | 15° C | 33% | 1021.6 hPa | 0 mm | - | 850 W/m² | - |
| 1777573887 | 15° C | 32% | 1021.7 hPa | 0 mm | - | 849 W/m² | - |
| 1777573582 | 15° C | 36% | 1021.6 hPa | 0 mm | - | 842 W/m² | - |
| 1777573279 | 15° C | 32% | 1021.7 hPa | 0 mm | - | 834 W/m² | - |
* Rain latest hour (hover to see other rain measurements)
** Current wind speed in m/s (hover to see current wind gust speed)